Location: Gipe Farm
(40.9466°N, 95.5370°W)
Time: 05:36:36
(UTC-05:00)

Daily predictions for brighter satellites

Satellite Brightness Start Highest point End
(mag) Time Altitude Azimuth Time Altitude Azimuth Time Altitude Azimuth
deb Chang Zheng 4 4.3 00:01:11 10° N 00:05:26 50° WNW 00:06:44 37° WSW
Cosmos 1869 3.3 00:03:33 10° N 00:07:20 75° WNW 00:07:20 75° WNW
Cosmos 1933 4.5 00:04:03 10° N 00:07:32 33° ENE 00:07:32 33° ENE
Cosmos 1707 Rocket 3.6 00:03:23 10° NNW 00:07:51 72° W 00:08:15 66° SW
ALOS 2 3.8 00:09:10 29° ENE 00:09:32 30° ENE 00:13:21 10° N
DELTA 2 DEB (DPAF) 4.2 00:15:00 62° SW 00:15:18 64° WSW 00:19:45 10° NNW
Cosmos 2034 Rocket 3.9 00:09:51 10° N 00:16:14 89° W 00:18:00 51° S
Cosmos 1315 Rocket 4.5 00:17:58 23° ENE 00:17:58 23° ENE 00:20:14 10° NE
Cosmos 1400 Rocket 3.3 00:19:41 54° ENE 00:19:41 54° ENE 00:23:13 10° NNE
CZ-4C R/B 3.7 00:19:17 62° WSW 00:19:22 63° W 00:23:45 10° NNW
Cosmos 1891 Rocket 4.5 00:15:08 10° NNW 00:21:10 72° W 00:22:48 49° SSW
Spot 4 4.4 00:21:11 43° SW 00:21:53 47° W 00:26:36 10° NNW
CZ-2C R/B 2.8 00:17:01 10° NNE 00:22:09 50° E 00:22:23 50° ESE
Cosmos 1666 Rocket 4.0 00:22:32 51° WSW 00:23:05 54° W 00:27:27 10° N
CZ-4B R/B 4.3 00:23:32 10° N 00:28:35 48° WNW 00:30:31 32° WSW
SME Rocket 3.6 00:30:22 46° W 00:30:22 46° W 00:34:41 10° NNW
Meteor 2-10 Rocket 3.7 00:25:36 10° N 00:31:00 67° E 00:31:51 58° SE
Cosmos 1862 Rocket 3.8 00:27:45 10° N 00:31:56 61° ENE 00:31:56 61° ENE
Cosmos 1933 Rocket 3.7 00:32:53 63° ENE 00:32:53 63° ENE 00:36:49 10° NNE
Cosmos 968 Rocket 3.7 00:32:53 51° SW 00:34:05 67° WNW 00:39:21 10° NNE
Cosmos 1633 Rocket 3.8 00:38:01 43° W 00:38:20 44° WNW 00:42:32 10° N
SL-27 R/B 4.5 00:36:48 10° N 00:38:45 21° NE 00:38:45 21° NE
Cosmos 2084 Rocket 4.2 00:40:20 10° NW 00:42:59 41° WNW 00:42:59 41° WNW
H-2A R/B 4.3 00:44:58 15° W 00:45:19 15° W 00:47:45 10° WNW
Cosmos 2278 Rocket 2.5 00:47:29 48° ESE 00:47:31 48° ESE 00:52:56 10° NE
CZ-4C R/B 2.7 00:45:00 29° WSW 00:47:31 54° NW 00:53:24 10° NNE
Cosmos 1461 4.3 00:52:36 29° ENE 00:52:36 29° ENE 00:54:45 10° NE
Cosmos 1634 Rocket 4.0 00:45:21 10° N 00:51:32 69° E 00:52:47 55° SE
Cosmos 1844 3.7 00:54:01 59° SW 00:55:04 78° WNW 01:00:42 10° NNE
Cosmos 1703 Rocket 4.1 00:59:40 10° N 01:03:50 51° ENE 01:03:50 51° ENE
Cosmos 2142 Rocket 4.4 01:02:26 10° N 01:08:42 83° E 01:09:50 62° SSE
Cosmos 2221 Rocket 4.4 01:05:26 10° N 01:09:28 41° ENE 01:09:28 41° ENE
Cosmos 1470 Rocket 4.5 01:10:27 40° W 01:10:30 40° WNW 01:14:42 10° N
CZ-2C R/B 3.5 01:09:58 53° SW 01:10:40 57° W 01:16:15 10° NNW
Cosmos 1538 Rocket 4.4 01:07:18 10° NNW 01:12:31 51° WSW 01:12:39 51° WSW
ATLAS 3B R/B 3.8 01:12:01 30° ESE 01:12:37 30° ESE 01:18:44 10° NE
CZ-4B R/B 3.4 01:13:48 25° NE 01:13:48 25° NE 01:16:12 10° NNE
Cosmos 1825 4.2 01:14:15 21° ENE 01:14:15 21° ENE 01:16:17 10° NE
Okean 1-7 3.8 01:09:30 10° N 01:13:24 42° ENE 01:13:24 42° ENE
Timation 1 Rocket 4.3 01:13:54 61° SE 01:14:23 64° ESE 01:20:18 10° NNE
COSMOS 2406 3.8 01:10:11 10° NW 01:15:27 40° WSW 01:15:37 40° WSW
BREEZE-M DEB 4.3 01:08:09 10° WSW 01:17:36 50° NNW 01:20:41 10° NE
Meteor 1-26 Rocket 4.1 01:13:22 10° NNW 01:18:52 68° W 01:19:20 65° SW
Cosmos 923 Rocket 3.8 01:15:59 10° NNW 01:21:13 85° ENE 01:21:28 80° SE
Cosmos 2082 Rocket 3.3 01:16:14 10° N 01:21:27 37° ENE 01:23:37 27° ESE
CZ-3B DEB 4.5 01:10:19 10° NW 01:22:49 63° NNE 01:34:50 10° ESE
Aureole 3 3.9 01:24:52 76° SSE 01:25:14 81° E 01:29:59 10° N
Cosmos 1869 Rocket 3.8 01:26:35 62° NE 01:26:35 62° NE 01:30:21 10° NNE
Cosmos 1844 Rocket 4.2 01:30:41 20° W 01:33:20 30° NW 01:38:12 10° N
Cosmos 44 3.6 01:39:40 50° ENE 01:39:40 50° ENE 01:43:20 10° NE
Nadezhda 4 Rocket 4.3 01:42:04 46° SE 01:43:25 55° E 01:49:33 10° NNE
ALOS 2 4.3 01:46:33 23° W 01:46:33 23° W 01:49:26 10° NW
Cosmos 1733 Rocket 4.3 01:47:38 32° E 01:47:38 32° E 01:51:19 10° NNE
Meteor 2-3 Rocket 4.3 01:46:58 42° WSW 01:48:06 48° WNW 01:53:42 10° N
Meteor 1-10 Rocket 4.2 01:45:07 10° N 01:50:58 84° E 01:51:57 64° SSE
Cosmos 2112 Rocket 3.9 01:45:46 10° NNW 01:51:05 80° WSW 01:51:20 77° SW
Cosmos 1689 Rocket 4.3 01:53:39 28° N 01:53:39 28° N 01:55:16 10° N
Cosmos 2279 Rocket 4.1 01:53:14 10° NNW 01:59:24 60° W 02:00:28 52° SW
Cosmos 1937 Rocket 3.9 01:59:35 48° ESE 01:59:47 48° ESE 02:04:44 10° NNE
Cosmos 192 4.5 01:56:46 10° NNW 02:01:24 61° W 02:01:24 61° W
CZ-2C R/B 4.4 01:58:10 10° NNW 02:02:01 21° WNW 02:03:54 17° W
Cosmos 1862 3.9 02:02:53 51° ENE 02:02:53 51° ENE 02:06:19 10° NNE
Cosmos 1680 Rocket 3.8 01:57:22 10° NNW 02:02:27 53° W 02:02:27 53° W
Meteor 2-6 Rocket 4.1 01:58:03 10° N 02:03:41 84° W 02:04:29 67° S
Cosmos 44 Rocket 3.4 02:05:47 63° W 02:06:07 66° NW 02:10:52 10° NNE
Cosmos 1340 3.7 02:04:06 10° N 02:07:19 42° NE 02:07:19 42° NE
Cosmos 1782 3.6 02:04:47 10° NNW 02:07:55 45° NW 02:07:55 45° NW
Cosmos 990 Rocket 4.3 02:08:36 49° ESE 02:08:56 50° ESE 02:13:56 10° NNE
Cosmos 1606 3.8 02:12:22 10° NNW 02:15:07 38° NW 02:15:07 38° NW
Meteor 1-27 Rocket 3.8 02:10:19 10° N 02:16:18 82° E 02:17:42 55° SSE
USA 238 DEB 3.9 02:14:56 47° SSE 02:16:32 57° ESE 02:23:22 10° NE
USA 238 3.9 02:15:03 47° SSE 02:16:39 57° ESE 02:23:29 10° NE
Cosmos 1674 Rocket 4.0 02:14:11 10° N 02:18:31 51° E 02:18:53 50° E
Cosmos 1898 Rocket 3.4 02:18:58 68° SW 02:19:34 79° WNW 02:24:51 10° NNE
H-2A R/B 2.5 02:16:01 10° N 02:20:30 79° WNW 02:20:30 79° WNW
SL-16 R/B 4.4 02:23:30 10° ESE 02:28:24 25° ENE 02:33:20 10° N
Meteor 2-20 4.4 02:27:48 53° S 02:29:24 85° E 02:35:36 10° N
Sich 1 Rocket 4.4 02:30:31 39° ESE 02:31:08 41° E 02:35:27 10° NNE
Cosmos 1908 Rocket 4.3 02:31:12 42° ESE 02:31:40 43° E 02:35:54 10° NNE
Cosmos 2278 Rocket 3.8 02:29:19 19° W 02:31:49 26° NW 02:36:30 10° N
Cosmos 1833 Rocket 2.6 02:26:16 10° NNW 02:31:52 64° WSW 02:32:31 59° SW
PSLV R/B 3.5 02:27:51 10° N 02:32:19 84° WNW 02:32:31 80° SW
Cosmos 1408 4.3 02:35:14 25° NW 02:35:14 25° NW 02:37:38 10° NNW
ADEOS Rocket 4.4 02:29:55 10° NNE 02:36:44 37° E 02:40:21 23° SE
Cosmos 1378 Rocket 4.4 02:33:24 10° N 02:37:34 44° ENE 02:38:28 38° ESE
Cosmos 2369 Rocket 3.5 02:37:08 25° SE 02:38:43 28° ESE 02:43:27 10° NE
Cosmos 1627 Rocket 4.5 02:41:36 45° SSE 02:43:33 75° E 02:49:42 10° N
CZ-4B R/B 4.0 02:47:22 13° WNW 02:47:22 13° WNW 02:48:12 10° NW
Cosmos 1825 4.0 02:49:08 21° WNW 02:49:08 21° WNW 02:51:42 10° NNW
NOSS 3-2 (A) 3.9 02:50:20 38° SSE 02:52:02 47° ESE 02:58:11 10° NE
NOSS 3-2 (C) 4.3 02:52:12 30° SSE 02:54:03 36° ESE 02:59:51 10° NE
BREEZE-M DEB (TANK) 3.8 02:55:54 20° E 02:55:54 20° E 02:57:40 10° ENE
Cosmos 1782 Rocket 4.3 02:54:01 38° SE 02:55:02 45° E 02:59:19 10° NNE
Resurs 1-4 Rocket 3.6 02:54:22 10° NE 02:58:56 28° E 03:01:36 19° SE
Cosmos 1092 Rocket 4.3 02:57:14 40° SW 02:59:09 54° W 03:05:17 10° N
Cosmos 1812 3.7 02:56:01 10° N 02:59:42 41° ENE 03:00:40 34° ESE
SL-08 R/B 3.7 02:59:36 32° SE 03:01:41 61° ENE 03:06:23 10° N
ATLAS 3B R/B 3.1 02:59:15 31° WSW 03:02:58 60° NW 03:10:05 10° NNE
Timation 2 Rocket 4.0 02:57:36 10° NNW 03:03:34 57° WSW 03:05:25 42° SSW
Helios 1A Rocket 2.9 03:00:46 10° N 03:04:51 65° WNW 03:05:10 62° WSW
Cosmos 2082 Rocket 3.1 03:00:31 10° NW 03:05:23 31° WSW 03:05:25 31° WSW
Cosmos 2026 Rocket 3.8 03:04:48 43° SSW 03:06:56 80° W 03:13:02 10° N
COBE Rocket 4.4 03:05:26 10° NNE 03:10:11 52° E 03:12:03 34° SSE
PSLV R/B 3.9 03:11:49 59° WSW 03:12:01 59° W 03:16:09 10° NNW
Cosmos 1553 Rocket 4.2 03:06:47 10° N 03:13:12 72° E 03:17:16 24° SSE
CZ-3B DEB 4.0 03:04:13 10° NW 03:16:56 64° SW 03:27:44 10° SSE
Milstar 3 4.4 03:15:00 22° S 03:17:23 25° SSE 03:26:45 10° E
Okean 3 3.5 03:14:39 10° NNW 03:18:48 55° W 03:19:08 53° WSW
Cosmos 1975 Rocket 3.0 03:19:59 10° N 03:24:21 82° E 03:25:52 40° SSE
IRS-1C 4.2 03:19:22 10° NNE 03:24:43 76° ESE 03:27:03 35° S
Cosmos 468 4.4 03:19:50 10° NNW 03:25:11 88° WSW 03:28:10 27° SSE
Abrixas 3.9 03:23:00 11° NW 03:25:26 34° NNE 03:27:59 10° E
Cosmos 1346 3.6 03:23:42 10° N 03:26:00 52° NNE 03:26:00 52° NNE
CZ-2D R/B 2.7 03:23:14 10° NNE 03:28:31 52° E 03:31:34 25° SSE
GENESIS II 4.3 03:28:20 53° S 03:29:06 67° ESE 03:33:06 10° NE
Cosmos 2344 3.7 03:26:18 30° SSW 03:30:27 71° ESE 03:38:48 10° NE
GP-B 3.6 03:26:26 10° NNW 03:30:39 43° W 03:31:28 38° WSW
Meteor 1-25 Rocket 4.1 03:30:50 34° S 03:33:22 87° W 03:39:04 10° N
SeaSat 1 2.4 03:32:18 29° S 03:34:49 69° WSW 03:39:45 10° NNW
BREEZE-M R/B 3.7 03:30:19 10° WNW 03:37:45 70° NNE 03:41:21 10° ESE
Cosmos 1048 Rocket 4.0 03:35:37 10° NNW 03:41:02 90° ENE 03:45:22 16° SSE
Cosmos 2151 Rocket 4.4 03:38:38 22° SSE 03:41:14 48° E 03:45:35 10° NNE
Cosmos 1437 3.2 03:39:07 10° NNW 03:42:00 44° W 03:42:00 44° W
Geosat 4.0 03:44:53 10° NNE 03:49:57 79° ESE 03:52:35 29° SSW
AQUA 4.5 03:54:57 10° N 03:59:25 41° WNW 04:01:32 26° WSW
Cosmos 1441 Rocket 3.6 03:55:32 10° N 03:59:32 65° E 04:02:52 14° SSE
Cosmos 1943 Rocket 2.2 04:00:50 24° SSW 04:04:21 82° ESE 04:09:59 10° NNE
COSMOS 2455 2.8 04:01:07 25° SSW 04:04:51 86° ESE 04:10:55 10° NNE
OE (NEXTSAT) 4.3 04:08:56 30° WSW 04:10:35 84° NNW 04:14:09 10° ENE
ADEOS 3.5 04:05:46 10° N 04:11:00 77° WNW 04:14:33 21° SSW
Cosmos 2266 Rocket 4.1 04:06:46 20° SSW 04:11:21 73° W 04:17:45 10° N
Cosmos 1125 Rocket 4.2 04:08:43 22° WSW 04:11:35 40° WNW 04:16:35 10° N
SL-16 R/B 2.7 04:06:45 17° S 04:11:36 56° W 04:17:45 10° NNW
Gbstr 26 Del rocket 2.7 04:10:41 26° WSW 04:12:37 69° NW 04:16:23 10° NE
Cosmos 2251 Rocket 4.4 04:09:58 10° N 04:15:08 50° ENE 04:20:12 10° SE
Okean 1 3.8 04:11:29 10° NNW 04:15:19 41° W 04:17:09 25° SW
deb Kosmos-1763 4.0 04:13:24 10° NNW 04:17:11 74° WSW 04:20:43 11° SSE
ARIANE 5 R/B 2.6 04:12:25 10° N 04:17:20 61° WNW 04:20:39 21° SSW
Cosmos 1656 Rocket 4.4 04:13:11 12° S 04:17:49 45° ESE 04:22:59 10° NE
Okean 1 Rocket 4.1 04:14:16 10° SSE 04:18:31 45° E 04:22:46 10° NNE
ADEOS Rocket 4.0 04:15:11 10° N 04:22:13 44° WNW 04:27:18 17° SW
Cosmos 1633 3.3 04:20:50 25° SW 04:22:18 36° WNW 04:25:41 10° N
Cosmos 2369 Rocket 2.9 04:18:56 19° WSW 04:22:31 40° WNW 04:27:51 10° N
Cosmos 2315 Rocket 4.0 04:17:13 10° N 04:23:32 90° ENE 04:29:46 10° S
Meteor 1-13 Rocket 4.1 04:21:18 10° NNW 04:26:50 77° W 04:32:25 10° S
GRACE-1 4.0 04:26:55 29° SSW 04:27:57 51° W 04:30:36 10° NNW
GRACE-2 4.0 04:27:19 29° SSW 04:28:23 51° W 04:31:02 10° N
Okean 2 Rocket 4.5 04:28:19 17° WSW 04:30:22 23° WNW 04:33:55 10° NNW
Cosmos 1300 Rocket 3.6 04:26:54 14° S 04:30:38 89° W 04:35:06 10° N
UNKNOWN OBJECT B 2.6 04:27:26 10° N 04:31:09 73° WNW 04:33:50 18° SSW
Cosmos 405 Rocket 3.9 04:29:54 10° NW 04:33:12 26° W 04:34:54 19° SW
Meteor 1-11 Rocket 3.8 04:28:11 14° SSW 04:33:16 79° W 04:39:10 10° N
USA 267 3.6 04:27:36 10° NE 04:34:02 57° SE 04:39:47 13° SSW
IRS-1D 4.3 04:30:55 10° N 04:35:33 37° WNW 04:39:04 16° SW
USA 161 2.2 04:33:45 10° SSE 04:36:10 48° ENE 04:38:47 10° N
Resurs 1-4 Rocket 2.9 04:33:58 10° N 04:38:47 36° WNW 04:42:41 15° SW
H-2A R/B 4.0 04:12:02 10° WSW 04:40:40 48° S 04:46:02 10° ESE
ATLAS 5 CENTAUR R/B 4.4 04:36:17 10° NNW 04:41:34 33° NE 04:47:17 10° ESE
PSLV R/B 3.1 04:39:08 13° W 04:41:58 89° N 04:45:16 10° E
MOS 1 Rocket 3.7 04:37:45 10° N 04:42:58 58° WNW 04:47:27 13° SSW
ASTRO E2 4.2 04:42:38 16° SSW 04:43:58 19° S 04:46:49 10° SE
NOSS 3-2 (C) 4.3 04:39:38 13° WSW 04:44:49 42° NW 04:51:08 10° NNE
Cosmos 2219 4.5 04:39:31 10° NNW 04:45:00 45° ENE 04:50:28 10° SE
Cosmos 494 Rocket 4.0 04:40:58 10° NNW 04:46:14 74° WSW 04:51:26 10° S
SL-24 R/B 4.3 04:42:44 10° N 04:47:07 71° WNW 04:52:10 10° SSW
CENTAUR R/B 2.6 04:42:47 13° SSW 04:48:13 81° ESE 04:55:03 10° NE
BREEZE M DEB (TANK) 3.4 04:51:57 12° SW 04:57:41 49° SSE 05:00:15 10° ENE
BREEZE-M DEB (TANK) 3.7 04:54:24 10° WNW 04:57:50 23° SW 05:00:09 10° S
CZ-4B R/B 3.7 04:55:08 10° NNE 04:58:38 42° E 05:02:02 10° S
Cosmos 1833 4.4 04:54:30 10° NNW 05:00:09 52° WSW 05:05:43 10° S
Abrixas 3.1 04:57:45 10° W 05:00:10 28° SW 05:02:34 10° SSE
BREEZE M DEB (TANK) 1.7 05:02:26 11° WSW 05:04:21 57° NNW 05:07:25 10° NE
Okean O Rocket 2.4 05:02:05 10° NNE 05:06:24 53° E 05:10:43 10° S
CZ-2D R/B 3.7 05:04:12 10° NNW 05:08:12 22° WNW 05:12:13 10° WSW
Cosmos 1025 Rocket 3.0 05:07:39 10° NNW 05:12:04 72° W 05:16:25 10° S
Cosmos 2227 Rocket 4.5 05:14:15 10° N 05:19:13 30° ENE 05:24:09 10° ESE
Cosmos 1745 Rocket 4.1 05:13:40 10° S 05:20:01 86° W 05:26:22 10° N
